TimeEST,TemperatureF,Dew PointF,Humidity,Sea Level PressureIn,VisibilityMPH,Wind Direction,Wind SpeedMPH,Gust SpeedMPH,PrecipitationIn,Events,Conditions,WindDirDegrees,DateUTC
12:15 AM,62.1,59.0,90,30.16,10.0,North,10.4,-,N/A,,Overcast,10,2012-11-18 05:15:00
12:22 AM,62.1,59.0,90,30.16,10.0,North,10.4,-,N/A,,Overcast,10,2012-11-18 05:22:00
12:53 AM,63.0,59.0,87,30.14,10.0,NNE,12.7,-,N/A,,Overcast,20,2012-11-18 05:53:00
1:28 AM,63.0,59.0,87,30.14,10.0,NNE,11.5,-,N/A,,Overcast,20,2012-11-18 06:28:00
2:48 AM,62.6,59.0,88,30.14,10.0,NNE,9.2,-,N/A,,Overcast,20,2012-11-18 07:48:00
2:53 AM,63.0,59.0,87,30.13,10.0,NNE,11.5,-,N/A,,Overcast,20,2012-11-18 07:53:00
3:53 AM,63.0,59.0,87,30.13,10.0,NNE,9.2,-,N/A,,Overcast,20,2012-11-18 08:53:00
4:53 AM,62.1,59.0,90,30.14,10.0,North,12.7,-,N/A,,Overcast,10,2012-11-18 09:53:00
5:53 AM,62.1,57.9,86,30.15,10.0,NNE,10.4,-,N/A,,Overcast,30,2012-11-18 10:53:00
6:53 AM,61.0,57.9,90,30.17,10.0,NNE,10.4,-,N/A,,Overcast,20,2012-11-18 11:53:00
7:09 AM,61.0,57.0,87,30.18,10.0,NNE,11.5,-,N/A,,Overcast,20,2012-11-18 12:09:00
7:53 AM,61.0,57.0,87,30.19,10.0,North,11.5,-,N/A,,Overcast,10,2012-11-18 12:53:00
8:01 AM,61.0,57.0,87,30.19,9.0,NNE,12.7,-,N/A,,Overcast,20,2012-11-18 13:01:00
8:53 AM,61.0,57.0,87,30.19,10.0,NNE,12.7,-,N/A,,Overcast,20,2012-11-18 13:53:00
9:53 AM,63.0,57.0,81,30.21,10.0,NNE,10.4,-,N/A,,Overcast,20,2012-11-18 14:53:00
10:53 AM,66.9,57.0,70,30.20,10.0,NNE,12.7,-,N/A,,Overcast,30,2012-11-18 15:53:00
11:53 AM,70.0,57.0,63,30.19,10.0,North,12.7,-,N/A,,Mostly Cloudy,10,2012-11-18 16:53:00
12:26 PM,70.0,57.0,63,30.17,10.0,North,10.4,-,N/A,,Scattered Clouds,360,2012-11-18 17:26:00
12:53 PM,71.1,57.0,61,30.16,10.0,North,12.7,-,N/A,,Partly Cloudy,360,2012-11-18 17:53:00
1:53 PM,73.9,55.9,53,30.14,10.0,North,11.5,-,N/A,,Partly Cloudy,10,2012-11-18 18:53:00
2:53 PM,73.9,55.9,53,30.13,10.0,NNE,10.4,-,N/A,,Partly Cloudy,20,2012-11-18 19:53:00
3:53 PM,72.0,55.9,57,30.14,10.0,NNE,11.5,-,N/A,,Partly Cloudy,20,2012-11-18 20:53:00
4:53 PM,69.1,55.9,63,30.15,10.0,NNE,10.4,-,N/A,,Clear,20,2012-11-18 21:53:00
5:53 PM,64.9,55.9,73,30.16,10.0,NNE,5.8,-,N/A,,Clear,20,2012-11-18 22:53:00
6:53 PM,63.0,55.9,78,30.18,10.0,North,6.9,-,N/A,,Clear,10,2012-11-18 23:53:00
7:53 PM,61.0,55.9,83,30.20,10.0,NNE,10.4,-,N/A,,Clear,20,2012-11-19 00:53:00
8:53 PM,59.0,54.0,83,30.21,10.0,NNE,6.9,-,N/A,,Clear,30,2012-11-19 01:53:00
9:53 PM,57.0,54.0,89,30.20,10.0,NNE,8.1,-,N/A,,Clear,20,2012-11-19 02:53:00
10:53 PM,55.9,53.1,90,30.19,10.0,NNE,4.6,-,N/A,,Clear,30,2012-11-19 03:53:00
11:53 PM,54.0,51.1,90,30.18,10.0,Calm,Calm,-,N/A,,Clear,0,2012-11-19 04:53:00